TimeEST,TemperatureF,Dew PointF,Humidity,Sea Level PressureIn,VisibilityMPH,Wind Direction,Wind SpeedMPH,Gust SpeedMPH,PrecipitationIn,Events,Conditions,WindDirDegrees,DateUTC
12:13 AM,28.2,26.6,94,30.13,4.0,ESE,6.9,16.1,0.02,Snow,Light Snow,120,2013-01-28 05:13:00
12:32 AM,28.9,27.5,94,30.10,4.0,SSE,12.7,-,0.05,Snow,Light Snow,150,2013-01-28 05:32:00
12:52 AM,29.7,27.9,93,30.11,5.0,SSE,8.1,17.3,0.06,,Overcast,150,2013-01-28 05:52:00
1:13 AM,29.8,27.9,92,30.08,7.0,SSE,12.7,20.7,N/A,,Overcast,150,2013-01-28 06:13:00
1:32 AM,30.2,28.2,92,30.05,7.0,SE,12.7,18.4,N/A,,Overcast,130,2013-01-28 06:32:00
1:52 AM,30.6,28.8,93,30.04,5.0,SE,10.4,16.1,0.01,,Overcast,140,2013-01-28 06:52:00
2:13 AM,31.1,29.3,93,30.03,3.0,SE,13.8,21.9,0.03,Snow,Light Snow,140,2013-01-28 07:13:00
2:32 AM,31.5,29.7,93,30.03,5.0,SSE,10.4,-,0.05,,Overcast,150,2013-01-28 07:32:00
2:53 AM,31.3,29.7,94,30.01,4.0,SSE,11.5,-,0.05,,Overcast,150,2013-01-28 07:53:00
3:13 AM,31.5,30.0,94,30.01,5.0,SSE,11.5,-,N/A,,Overcast,160,2013-01-28 08:13:00
3:32 AM,31.6,30.2,94,30.00,5.0,SSE,11.5,17.3,N/A,,Overcast,160,2013-01-28 08:32:00
3:53 AM,31.8,30.4,94,29.98,3.0,SSE,11.5,-,N/A,Snow,Light Snow,150,2013-01-28 08:53:00
4:13 AM,32.0,30.9,96,29.97,4.0,SSE,13.8,18.4,N/A,,Overcast,160,2013-01-28 09:13:00
4:32 AM,32.0,31.1,96,29.96,4.0,South,10.4,18.4,N/A,,Overcast,170,2013-01-28 09:32:00
4:53 AM,32.0,31.1,96,29.95,4.0,SSE,11.5,-,N/A,,Overcast,160,2013-01-28 09:53:00
5:13 AM,32.0,31.1,96,29.94,5.0,SSE,6.9,16.1,N/A,,Overcast,160,2013-01-28 10:13:00
5:32 AM,32.2,31.6,98,29.94,5.0,South,8.1,-,N/A,,Overcast,170,2013-01-28 10:32:00
5:53 AM,32.4,32.0,99,29.92,5.0,South,8.1,-,N/A,,Overcast,170,2013-01-28 10:53:00
6:13 AM,32.5,32.0,98,29.92,4.0,South,8.1,-,N/A,,Overcast,170,2013-01-28 11:13:00
6:32 AM,32.7,32.0,97,29.91,4.0,SSE,8.1,-,N/A,Snow,Light Snow,160,2013-01-28 11:32:00
6:53 AM,32.9,32.0,96,29.90,5.0,SSE,6.9,-,N/A,,Overcast,160,2013-01-28 11:53:00
7:13 AM,32.9,32.0,96,29.89,3.0,SE,4.6,-,N/A,,Overcast,140,2013-01-28 12:13:00
7:32 AM,33.1,32.4,97,29.89,2.5,South,6.9,-,N/A,,Overcast,170,2013-01-28 12:32:00
7:53 AM,33.1,32.5,98,29.88,3.0,SSE,3.5,-,N/A,,Overcast,150,2013-01-28 12:53:00
8:13 AM,33.1,32.5,98,29.88,3.0,South,4.6,-,N/A,,Overcast,180,2013-01-28 13:13:00
8:32 AM,33.3,32.9,99,29.86,2.5,SSE,3.5,-,0.01,,Overcast,150,2013-01-28 13:32:00
8:53 AM,33.4,32.9,98,29.86,2.5,SSE,3.5,-,0.01,,Overcast,150,2013-01-28 13:53:00
9:13 AM,33.4,32.9,98,29.86,1.5,SSE,4.6,-,0.01,Snow,Light Snow,150,2013-01-28 14:13:00
9:32 AM,33.8,32.9,96,29.85,2.0,SSE,3.5,-,0.02,Rain,Heavy Rain,160,2013-01-28 14:32:00
9:53 AM,33.8,33.3,98,29.84,2.5,South,5.8,-,0.02,,Overcast,170,2013-01-28 14:53:00
10:13 AM,34.3,33.8,98,29.84,4.0,South,6.9,-,N/A,,Light Drizzle,180,2013-01-28 15:13:00
10:32 AM,35.1,34.5,98,29.84,3.0,South,5.8,-,N/A,Rain,Rain,180,2013-01-28 15:32:00
10:53 AM,35.6,35.1,98,29.84,5.0,South,5.8,-,N/A,,Overcast,180,2013-01-28 15:53:00
11:12 AM,36.7,36.1,98,29.84,2.0,SSW,4.6,-,N/A,,Overcast,200,2013-01-28 16:12:00
11:33 AM,39.4,38.8,98,29.84,3.0,SSW,9.2,-,N/A,,Overcast,210,2013-01-28 16:33:00
11:53 AM,40.8,39.9,97,29.83,3.0,SW,10.4,18.4,N/A,,Overcast,220,2013-01-28 16:53:00
12:33 PM,41.5,40.3,95,29.81,2.0,SW,9.2,-,N/A,Rain,Light Rain,230,2013-01-28 17:33:00
12:53 PM,41.5,40.5,96,29.81,2.5,SW,8.1,-,N/A,Rain,Light Rain,230,2013-01-28 17:53:00
1:12 PM,41.9,40.8,96,29.81,2.0,SW,10.4,17.3,N/A,,Overcast,230,2013-01-28 18:12:00
1:33 PM,41.5,40.6,97,29.81,1.2,SW,9.2,-,N/A,,Overcast,230,2013-01-28 18:33:00
1:53 PM,41.7,40.8,97,29.81,1.2,WSW,8.1,-,N/A,Rain,Light Rain,240,2013-01-28 18:53:00
2:12 PM,42.1,41.2,97,29.81,1.5,WSW,9.2,-,N/A,Rain,Light Rain,250,2013-01-28 19:12:00
2:33 PM,42.1,41.2,97,29.82,2.0,WSW,9.2,-,N/A,,Overcast,250,2013-01-28 19:33:00
2:53 PM,42.1,41.2,97,29.82,1.5,West,8.1,-,N/A,,Overcast,260,2013-01-28 19:53:00
3:12 PM,41.9,41.2,97,29.83,1.2,West,9.2,-,N/A,,Overcast,260,2013-01-28 20:12:00
3:33 PM,41.5,40.6,97,29.84,0.8,West,5.8,-,N/A,,Overcast,270,2013-01-28 20:33:00
3:53 PM,41.2,40.3,97,29.85,0.8,West,9.2,-,N/A,,Overcast,270,2013-01-28 20:53:00
4:13 PM,40.6,40.1,98,29.86,1.0,West,6.9,-,N/A,Rain,Light Rain,260,2013-01-28 21:13:00
4:33 PM,40.6,39.2,95,29.87,7.0,West,11.5,-,N/A,,Overcast,270,2013-01-28 21:33:00
4:52 PM,40.1,38.5,94,29.88,4.0,West,6.9,-,N/A,,Overcast,270,2013-01-28 21:52:00
5:13 PM,39.2,37.9,95,29.90,4.0,West,11.5,-,N/A,,Overcast,270,2013-01-28 22:13:00
5:33 PM,39.0,37.4,94,29.91,7.0,West,11.5,17.3,N/A,,Overcast,270,2013-01-28 22:33:00
5:52 PM,38.3,36.7,94,29.92,10.0,West,8.1,-,N/A,,Overcast,270,2013-01-28 22:52:00
6:13 PM,37.9,36.1,93,29.92,7.0,West,8.1,-,N/A,,Overcast,260,2013-01-28 23:13:00
6:33 PM,37.4,35.6,93,29.94,10.0,West,6.9,-,N/A,,Overcast,280,2013-01-28 23:33:00
6:52 PM,37.4,35.2,92,29.95,10.0,West,6.9,-,N/A,,Overcast,260,2013-01-28 23:52:00
7:13 PM,37.0,34.9,92,29.97,10.0,West,6.9,-,N/A,,Overcast,260,2013-01-29 00:13:00
7:33 PM,36.9,34.7,92,29.97,10.0,West,5.8,-,N/A,,Overcast,260,2013-01-29 00:33:00
7:52 PM,36.5,34.3,92,29.98,10.0,West,5.8,-,N/A,,Overcast,260,2013-01-29 00:52:00
8:13 PM,36.5,34.2,91,29.98,10.0,West,5.8,-,N/A,,Overcast,260,2013-01-29 01:13:00
8:33 PM,36.5,34.0,91,29.98,10.0,West,4.6,-,N/A,,Overcast,270,2013-01-29 01:33:00
8:52 PM,36.1,34.0,92,29.99,10.0,West,4.6,-,N/A,,Overcast,260,2013-01-29 01:52:00
9:13 PM,36.1,34.0,92,29.98,10.0,West,4.6,-,N/A,,Overcast,260,2013-01-29 02:13:00
9:33 PM,35.6,33.8,93,29.98,10.0,WSW,3.5,-,N/A,,Mostly Cloudy,240,2013-01-29 02:33:00
9:52 PM,35.2,33.8,94,29.99,10.0,West,4.6,-,N/A,,Mostly Cloudy,260,2013-01-29 02:52:00
10:13 PM,35.2,33.8,94,30.00,10.0,West,3.5,-,N/A,,Overcast,260,2013-01-29 03:13:00
10:33 PM,35.2,33.4,93,30.00,10.0,Calm,Calm,-,N/A,,Overcast,0,2013-01-29 03:33:00
10:52 PM,35.2,33.6,94,30.00,10.0,Calm,Calm,-,N/A,,Overcast,0,2013-01-29 03:52:00
11:13 PM,34.7,33.1,94,30.00,10.0,Calm,Calm,-,N/A,,Overcast,0,2013-01-29 04:13:00
11:52 PM,35.1,33.4,94,30.00,10.0,Calm,Calm,-,N/A,,Overcast,0,2013-01-29 04:52:00